Regional Weather Roundup
Issued by NWS

Current Version | Previous Version | Text Only | Print | Product List | Glossary Off
Versions: 1 2 3 4 5 6 7 8 9 10 11 12 13 14 15 16 17 18 19 20 21 22 23 24 25 26 27 28 29 30 31 32 33 34 35 36 37 38 39 40 41 42 43 44 45 46 47 48 49 50

000
ASUS44 KMEG 290010
RWRTN
TENNESSEE HOURLY STATE WEATHER ROUNDUP
NATIONAL WEATHER SERVICE MEMPHIS TN
600 PM CST WED JAN 28 2015

TNZ002-004-019-021-049-052-054-088>092-290100-
WEST TENNESSEE

CITY           SKY/WX    TMP DP  RH WIND       PRES   REMARKS
MEMPHIS INTL   PTCLDY    56  32  40 SE8       30.10F
NWS MEMPHIS      N/A     55 N/A N/A MISG        N/A
JACKSON        PTCLDY    52  28  39 S6        30.13F
DYERSBURG      PTCLDY    48  23  37 SE7       30.12F
UNION CITY     CLEAR     45  30  57 SE6       30.10F
PARIS          CLEAR     43  27  52 SE6       30.14F
LEXINGTON      CLEAR     48  27  43 S6        30.16S
SAVANNAH       CLEAR     46  30  53 SE3       30.19S
$$

TNZ008-025-027-028-033-062-065-066-290100-
NORTH MIDDLE TENNESSEE

CITY           SKY/WX    TMP DP  RH WIND       PRES   REMARKS
NASHVILLE      PTCLDY    46  24  42 S3        30.21R
CLARKSVILLE    CLEAR     40  26  57 SE7       30.17S
SMYRNA         CLEAR     44  23  43 CALM      30.22R
COOKEVILLE     CLEAR     43  21  42 SE5       30.19F
CROSSVILLE     CLEAR     37   6  27 CALM      30.22R
$$

TNZ061-075-076-078-094-096-097-290100-
SOUTH MIDDLE TENNESSEE

CITY           SKY/WX    TMP DP  RH WIND       PRES   REMARKS
TULLAHOMA      CLEAR     39  25  56 CALM      30.21R
WINCHESTER     CLEAR     43  21  42 S6        30.22R
MCMINNVILLE    CLEAR     41  25  52 CALM      30.20S
COLUMBIA       CLEAR     46  28  49 CALM      30.18S
SHELBYVILLE    CLEAR     43  28  56 CALM      30.21S
$$

TNZ017-018-042-046-047-290100-
NORTHEAST TENNESSEE

CITY           SKY/WX    TMP DP  RH WIND       PRES   REMARKS
TRI CITIES     PTCLDY    30  20  66 CALM      30.26F
ELIZABETHTON   CLEAR     27  21  80 CALM      30.25F
$$

TNZ012-013-036-069-073-074-290100-
CENTRAL EAST TENNESSEE

CITY           SKY/WX    TMP DP  RH WIND       PRES   REMARKS
KNOXVILLE      CLEAR     37  18  46 NE5       30.25S WCI  33
OAK RIDGE      CLEAR     37  18  46 CALM      30.27R
GATLINBURG     CLEAR     34  18  51 CALM      30.25S
MORRISTOWN     CLEAR     34  19  55 E3        30.25F
$$

TNZ083-085-099-290100-
SOUTHEAST TENNESSEE

CITY           SKY/WX    TMP DP  RH WIND       PRES   REMARKS
CHATTANOOGA    PTCLDY    43  15  32 CALM      30.25S
$$

SKY/WX REPORTED AS FAIR MEANS FEW OR NO CLOUDS BELOW
12 THOUSAND FEET.




USA.gov is the U.S. government's official web portal to all federal, state and local government web resources and services.